| time (UTC) | temp F | wind direction | speed knots | gust knots | rain 1hr in | rain 24hr in | rain mn in | humidity % | barometer mb |
| 20260504160409 | 58 | 355 | 3.5 | 4.3 | 0.00 | 0.00 | 0.00 | 74 | 1010.7 |
| 20260504150844 | 58 | 52 | 0.9 | 2.6 | 0.00 | 0.00 | 0.00 | 72 | 1010.3 |
| 20260504150334 | 58 | 127 | 0.9 | 1.7 | 0.00 | 0.00 | 0.00 | 72 | 1010.2 |
| 20260504141319 | 55 | 42 | 0.9 | 1.7 | 0.00 | 0.00 | 0.00 | 83 | 1009.9 |
| 20260504141053 | 54 | 359 | 0.9 | 1.7 | 0.00 | 0.00 | 0.00 | 83 | 1009.9 |
| 20260504140310 | 54 | 353 | 0.9 | 1.7 | 0.00 | 0.00 | 0.00 | 84 | 1009.8 |
| 20260504130747 | 53 | 233 | 1.7 | 2.6 | 0.00 | 0.00 | 0.00 | 85 | 1009.2 |
| 20260504130234 | 53 | 248 | 1.7 | 3.5 | 0.00 | 0.00 | 0.00 | 85 | 1009.1 |
| 20260504120202 | 53 | 256 | 0.0 | 0.9 | 0.00 | 0.00 | 0.00 | 84 | 1008.8 |
| 20260504110614 | 54 | 256 | 0.0 | 0.0 | 0.00 | 0.00 | 0.00 | 83 | 1008.7 |
| 20260504100533 | 56 | 256 | 0.0 | 0.9 | 0.00 | 0.00 | 0.00 | 79 | 1008.5 |
| 20260504081939 | 59 | 233 | 0.9 | 1.7 | 0.00 | 0.00 | 0.00 | 74 | 1008.6 |
| 20260504081439 | 60 | 228 | 0.0 | 0.9 | 0.00 | 0.00 | 0.00 | 73 | 1008.6 |
| 20260504080937 | 60 | 219 | 0.0 | 1.7 | 0.00 | 0.00 | 0.00 | 72 | 1008.6 |
| 20260504080431 | 60 | 217 | 0.9 | 1.7 | 0.00 | 0.00 | 0.00 | 73 | 1008.6 |
| 20260504070347 | 61 | 359 | 0.9 | 1.7 | 0.00 | 0.00 | 0.00 | 68 | 1008.5 |
| 20260504070119 | 61 | 359 | 0.9 | 1.7 | 0.00 | 0.00 | 0.00 | 71 | 1008.5 |
| 20260504050317 | 67 | 217 | 1.7 | 3.5 | 0.00 | 0.00 | 0.00 | 57 | 1008.6 |
| 20260504045819 | 67 | 212 | 1.7 | 3.5 | 0.00 | 0.00 | 0.00 | 58 | 1008.6 |
| 20260504045335 | 67 | 226 | 1.7 | 2.6 | 0.00 | 0.00 | 0.00 | 58 | 1008.6 |
| 20260504044321 | 68 | 9 | 0.9 | 2.6 | 0.00 | 0.00 | 0.00 | 56 | 1008.3 |
| 20260504043817 | 69 | 9 | 0.0 | 1.7 | 0.00 | 0.00 | 0.00 | 55 | 1008.3 |
| 20260504043320 | 69 | 9 | 0.0 | 1.7 | 0.00 | 0.00 | 0.00 | 52 | 1008.2 |
| 20260504043051 | 70 | 9 | 0.9 | 1.7 | 0.00 | 0.00 | 0.00 | 51 | 1008.2 |
| 20260504042306 | 71 | 9 | 0.9 | 1.7 | 0.00 | 0.00 | 0.00 | 54 | 1008.2 |
| 20260504041802 | 71 | 9 | 0.9 | 1.7 | 0.00 | 0.00 | 0.00 | 51 | 1008.2 |
| 20260504041300 | 72 | 9 | 0.9 | 1.7 | 0.00 | 0.00 | 0.00 | 43 | 1008.2 |
| 20260504041043 | 72 | 9 | 0.9 | 1.7 | 0.00 | 0.00 | 0.00 | 41 | 1008.2 |
| 20260504040303 | 72 | 9 | 0.9 | 1.7 | 0.00 | 0.00 | 0.00 | 41 | 1008.1 |
| 20260504035802 | 73 | 9 | 0.9 | 1.7 | 0.00 | 0.00 | 0.00 | 42 | 1008.1 |
| 20260504035304 | 74 | 31 | 0.9 | 1.7 | 0.00 | 0.00 | 0.00 | 40 | 1008.1 |
| 20260504034802 | 74 | 58 | 1.7 | 3.5 | 0.00 | 0.00 | 0.00 | 37 | 1008.0 |
| 20260504034300 | 75 | 65 | 2.6 | 4.3 | 0.00 | 0.00 | 0.00 | 35 | 1008.0 |
| 20260504033805 | 75 | 57 | 2.6 | 4.3 | 0.00 | 0.00 | 0.00 | 35 | 1008.0 |
| 20260504033304 | 75 | 78 | 1.7 | 4.3 | 0.00 | 0.00 | 0.00 | 34 | 1007.8 |
| 20260504032806 | 76 | 71 | 1.7 | 4.3 | 0.00 | 0.00 | 0.00 | 35 | 1007.8 |
| 20260504032304 | 76 | 79 | 1.7 | 3.5 | 0.00 | 0.00 | 0.00 | 33 | 1007.8 |
| 20260504031801 | 76 | 59 | 0.9 | 2.6 | 0.00 | 0.00 | 0.00 | 35 | 1007.7 |
| 20260504031300 | 77 | 13 | 0.9 | 3.5 | 0.00 | 0.00 | 0.00 | 38 | 1007.7 |
| 20260504030802 | 78 | 111 | 1.7 | 5.2 | 0.00 | 0.00 | 0.00 | 37 | 1007.7 |
| 20260504030302 | 78 | 58 | 2.6 | 5.2 | 0.00 | 0.00 | 0.00 | 33 | 1007.8 |
| 20260504030053 | 78 | 46 | 2.6 | 4.3 | 0.00 | 0.00 | 0.00 | 31 | 1007.9 |
| 20260504025304 | 79 | 99 | 3.5 | 4.3 | 0.00 | 0.00 | 0.00 | 32 | 1007.9 |
| 20260504025116 | 79 | 57 | 2.6 | 4.3 | 0.00 | 0.00 | 0.00 | 31 | 1007.8 |
| 20260504023801 | 79 | 69 | 2.6 | 3.5 | 0.00 | 0.00 | 0.00 | 34 | 1007.8 |
| 20260504023302 | 79 | 4 | 2.6 | 4.3 | 0.00 | 0.00 | 0.00 | 34 | 1007.8 |
| 20260504023049 | 80 | 4 | 2.6 | 4.3 | 0.00 | 0.00 | 0.00 | 31 | 1007.8 |
| 20260504022301 | 80 | 350 | 2.6 | 6.1 | 0.00 | 0.00 | 0.00 | 33 | 1007.8 |
| 20260504021749 | 80 | 65 | 2.6 | 6.1 | 0.00 | 0.00 | 0.00 | 30 | 1007.8 |
| 20260504021523 | 80 | 343 | 4.3 | 8.7 | 0.00 | 0.00 | 0.00 | 33 | 1007.8 |
| 20260504020736 | 80 | 50 | 4.3 | 8.7 | 0.00 | 0.00 | 0.00 | 29 | 1007.8 |
| 20260504020234 | 80 | 59 | 3.5 | 6.1 | 0.00 | 0.00 | 0.00 | 29 | 1007.8 |
| 20260504015732 | 80 | 62 | 1.7 | 5.2 | 0.00 | 0.00 | 0.00 | 35 | 1007.8 |
| 20260504015234 | 81 | 345 | 2.6 | 4.3 | 0.00 | 0.00 | 0.00 | 34 | 1007.8 |
| 20260504014735 | 81 | 350 | 3.5 | 6.1 | 0.00 | 0.00 | 0.00 | 30 | 1008.0 |
| 20260504014514 | 81 | 22 | 3.5 | 7.8 | 0.00 | 0.00 | 0.00 | 28 | 1008.0 |
| 20260504013731 | 81 | 57 | 5.2 | 10.4 | 0.00 | 0.00 | 0.00 | 28 | 1008.0 |
| 20260504013516 | 81 | 48 | 6.1 | 10.4 | 0.00 | 0.00 | 0.00 | 28 | 1008.1 |
| 20260504012730 | 81 | 78 | 4.3 | 10.4 | 0.00 | 0.00 | 0.00 | 27 | 1008.1 |
| 20260504012508 | 82 | 43 | 3.5 | 10.4 | 0.00 | 0.00 | 0.00 | 30 | 1008.1 |
| 20260504011705 | 82 | 30 | 3.5 | 8.7 | 0.00 | 0.00 | 0.00 | 29 | 1008.2 |
| 20260504011441 | 81 | 47 | 2.6 | 5.2 | 0.00 | 0.00 | 0.00 | 30 | 1008.2 |
| 20260504010644 | 81 | 53 | 3.5 | 6.1 | 0.00 | 0.00 | 0.00 | 31 | 1008.2 |
| 20260504010145 | 82 | 359 | 4.3 | 8.7 | 0.00 | 0.00 | 0.00 | 31 | 1008.2 |
| 20260504005705 | 82 | 36 | 5.2 | 8.7 | 0.00 | 0.00 | 0.00 | 30 | 1008.2 |
| 20260504004640 | 82 | 359 | 3.5 | 6.1 | 0.00 | 0.00 | 0.00 | 29 | 1008.3 |
| 20260504004431 | 82 | 27 | 3.5 | 6.1 | 0.00 | 0.00 | 0.00 | 30 | 1008.3 |
| 20260504003637 | 82 | 22 | 3.5 | 7.8 | 0.00 | 0.00 | 0.00 | 28 | 1008.3 |
| 20260504003137 | 82 | 55 | 3.5 | 7.8 | 0.00 | 0.00 | 0.00 | 29 | 1008.4 |
| 20260504002638 | 81 | 21 | 2.6 | 4.3 | 0.00 | 0.00 | 0.00 | 31 | 1008.4 |
| 20260504002135 | 81 | 14 | 3.5 | 5.2 | 0.00 | 0.00 | 0.00 | 32 | 1008.4 |
| 20260504001631 | 81 | 34 | 4.3 | 5.2 | 0.00 | 0.00 | 0.00 | 32 | 1008.5 |
| 20260504001130 | 81 | 42 | 4.3 | 5.2 | 0.00 | 0.00 | 0.00 | 31 | 1008.5 |
| 20260504000915 | 81 | 344 | 4.3 | 6.1 | 0.00 | 0.00 | 0.00 | 31 | 1008.5 |
| 20260504000129 | 81 | 359 | 4.3 | 6.1 | 0.00 | 0.00 | 0.00 | 31 | 1008.7 |
| 20260503235918 | 81 | 336 | 4.3 | 6.1 | 0.00 | 0.00 | 0.00 | 29 | 1008.7 |
| 20260503235129 | 81 | 359 | 4.3 | 7.0 | 0.00 | 0.00 | 0.00 | 31 | 1008.7 |
| 20260503234919 | 81 | 340 | 4.3 | 8.7 | 0.00 | 0.00 | 0.00 | 32 | 1008.8 |
| 20260503234130 | 81 | 26 | 4.3 | 8.7 | 0.00 | 0.00 | 0.00 | 31 | 1008.8 |
| 20260503233628 | 81 | 352 | 4.3 | 7.0 | 0.00 | 0.00 | 0.00 | 32 | 1008.8 |
| 20260503233117 | 81 | 16 | 3.5 | 5.2 | 0.00 | 0.00 | 0.00 | 32 | 1009.0 |
| 20260503232613 | 81 | 9 | 2.6 | 5.2 | 0.00 | 0.00 | 0.00 | 32 | 1009.0 |
| 20260503232114 | 81 | 325 | 3.5 | 4.3 | 0.00 | 0.00 | 0.00 | 31 | 1009.0 |
| 20260503231612 | 80 | 9 | 3.5 | 4.3 | 0.00 | 0.00 | 0.00 | 32 | 1009.3 |
| 20260503231103 | 80 | 355 | 3.5 | 4.3 | 0.00 | 0.00 | 0.00 | 33 | 1009.3 |
| 20260503230604 | 80 | 359 | 3.5 | 4.3 | 0.00 | 0.00 | 0.00 | 33 | 1009.3 |
| 20260503225604 | 80 | 359 | 3.5 | 5.2 | 0.00 | 0.00 | 0.00 | 34 | 1009.4 |
| 20260503225347 | 80 | 9 | 3.5 | 5.2 | 0.00 | 0.00 | 0.00 | 34 | 1009.4 |
| 20260503224603 | 79 | 9 | 3.5 | 6.1 | 0.00 | 0.00 | 0.00 | 37 | 1009.7 |
| 20260503224101 | 79 | 9 | 4.3 | 6.1 | 0.00 | 0.00 | 0.00 | 36 | 1009.7 |
| 20260503223602 | 79 | 4 | 4.3 | 6.1 | 0.00 | 0.00 | 0.00 | 35 | 1009.6 |
| 20260503223101 | 79 | 355 | 4.3 | 6.1 | 0.00 | 0.00 | 0.00 | 35 | 1009.8 |
| 20260503222602 | 78 | 359 | 5.2 | 7.8 | 0.00 | 0.00 | 0.00 | 36 | 1009.8 |
| 20260503222355 | 78 | 9 | 5.2 | 7.8 | 0.00 | 0.00 | 0.00 | 37 | 1010.0 |
| 20260503221557 | 78 | 4 | 5.2 | 7.8 | 0.00 | 0.00 | 0.00 | 36 | 1010.0 |
| 20260503221050 | 78 | 9 | 5.2 | 7.8 | 0.00 | 0.00 | 0.00 | 36 | 1010.0 |
| 20260503220543 | 78 | 19 | 5.2 | 8.7 | 0.00 | 0.00 | 0.00 | 37 | 1010.2 |
| 20260503220042 | 77 | 348 | 5.2 | 8.7 | 0.00 | 0.00 | 0.00 | 38 | 1010.2 |
| 20260503215911 | 77 | 4 | 5.2 | 7.8 | 0.00 | 0.00 | 0.00 | 37 | 1010.2 |
| 20260503214828 | 77 | 342 | 7.0 | 9.6 | 0.00 | 0.00 | 0.00 | 38 | 1010.3 |
| 20260503214036 | 76 | 9 | 7.0 | 9.6 | 0.00 | 0.00 | 0.00 | 39 | 1010.3 |
| 20260503213535 | 76 | 9 | 6.1 | 9.6 | 0.00 | 0.00 | 0.00 | 39 | 1010.5 |
| 20260503213034 | 77 | 9 | 5.2 | 8.7 | 0.00 | 0.00 | 0.00 | 40 | 1010.5 |
| 20260503212535 | 76 | 15 | 5.2 | 8.7 | 0.00 | 0.00 | 0.00 | 41 | 1010.5 |
| 20260503212034 | 76 | 353 | 6.1 | 9.6 | 0.00 | 0.00 | 0.00 | 42 | 1010.7 |
| 20260503211532 | 76 | 25 | 6.1 | 9.6 | 0.00 | 0.00 | 0.00 | 40 | 1010.7 |
| 20260503211318 | 76 | 359 | 6.1 | 9.6 | 0.00 | 0.00 | 0.00 | 39 | 1010.7 |
| 20260503210822 | 76 | 346 | 5.2 | 9.6 | 0.00 | 0.00 | 0.00 | 40 | 1010.8 |
| 20260503210029 | 76 | 30 | 6.1 | 9.6 | 0.00 | 0.00 | 0.00 | 41 | 1010.8 |
| 20260503205529 | 76 | 9 | 5.2 | 9.6 | 0.00 | 0.00 | 0.00 | 41 | 1010.8 |
| 20260503205030 | 75 | 345 | 5.2 | 8.7 | 0.00 | 0.00 | 0.00 | 44 | 1011.1 |
| 20260503204533 | 75 | 354 | 6.1 | 8.7 | 0.00 | 0.00 | 0.00 | 42 | 1011.1 |
| 20260503204047 | 75 | 359 | 6.1 | 9.6 | 0.00 | 0.00 | 0.00 | 42 | 1011.1 |
| 20260503203015 | 74 | 33 | 6.1 | 9.6 | 0.00 | 0.00 | 0.00 | 42 | 1011.3 |
| 20260503202804 | 75 | 9 | 5.2 | 8.7 | 0.00 | 0.00 | 0.00 | 44 | 1011.3 |
| 20260503202011 | 74 | 359 | 5.2 | 8.7 | 0.00 | 0.00 | 0.00 | 43 | 1011.4 |
| 20260503201510 | 74 | 344 | 5.2 | 8.7 | 0.00 | 0.00 | 0.00 | 45 | 1011.4 |
| 20260503201010 | 74 | 4 | 5.2 | 8.7 | 0.00 | 0.00 | 0.00 | 44 | 1011.4 |
| 20260503200510 | 73 | 4 | 4.3 | 7.8 | 0.00 | 0.00 | 0.00 | 44 | 1011.7 |
| 20260503200010 | 73 | 9 | 4.3 | 7.0 | 0.00 | 0.00 | 0.00 | 45 | 1011.7 |
| 20260503195504 | 73 | 9 | 5.2 | 7.8 | 0.00 | 0.00 | 0.00 | 44 | 1011.7 |
| 20260503195022 | 73 | 348 | 5.2 | 7.8 | 0.00 | 0.00 | 0.00 | 46 | 1011.8 |
| 20260503194004 | 73 | 15 | 5.2 | 7.8 | 0.00 | 0.00 | 0.00 | 45 | 1011.8 |
| 20260503193502 | 72 | 19 | 4.3 | 7.8 | 0.00 | 0.00 | 0.00 | 46 | 1012.0 |
| 20260503193003 | 72 | 9 | 4.3 | 7.8 | 0.00 | 0.00 | 0.00 | 46 | 1012.0 |
| 20260503192001 | 71 | 15 | 5.2 | 6.1 | 0.00 | 0.00 | 0.00 | 47 | 1012.3 |
| 20260503191502 | 71 | 333 | 5.2 | 7.8 | 0.00 | 0.00 | 0.00 | 47 | 1012.3 |
| 20260503191006 | 71 | 342 | 4.3 | 7.8 | 0.00 | 0.00 | 0.00 | 47 | 1012.3 |
| 20260503190506 | 70 | 352 | 5.2 | 8.7 | 0.00 | 0.00 | 0.00 | 48 | 1012.3 |
| 20260503190002 | 70 | 338 | 5.2 | 8.7 | 0.00 | 0.00 | 0.00 | 48 | 1012.3 |
| 20260503185501 | 70 | 4 | 5.2 | 9.6 | 0.00 | 0.00 | 0.00 | 49 | 1012.3 |
| 20260503184955 | 69 | 23 | 5.2 | 9.6 | 0.00 | 0.00 | 0.00 | 49 | 1012.6 |
| 20260503184731 | 69 | 350 | 5.2 | 9.6 | 0.00 | 0.00 | 0.00 | 49 | 1012.6 |
| 20260503183948 | 69 | 9 | 6.1 | 9.6 | 0.00 | 0.00 | 0.00 | 50 | 1012.6 |
| 20260503183448 | 68 | 9 | 5.2 | 9.6 | 0.00 | 0.00 | 0.00 | 51 | 1012.7 |
| 20260503182950 | 68 | 333 | 5.2 | 8.7 | 0.00 | 0.00 | 0.00 | 51 | 1012.7 |
| 20260503182729 | 68 | 16 | 5.2 | 8.7 | 0.00 | 0.00 | 0.00 | 52 | 1012.7 |
| 20260503181947 | 68 | 14 | 5.2 | 8.7 | 0.00 | 0.00 | 0.00 | 53 | 1012.8 |
| 20260503181447 | 67 | 343 | 5.2 | 8.7 | 0.00 | 0.00 | 0.00 | 53 | 1012.8 |
| 20260503180946 | 67 | 359 | 4.3 | 8.7 | 0.00 | 0.00 | 0.00 | 53 | 1012.8 |
| 20260503180729 | 67 | 23 | 5.2 | 7.8 | 0.00 | 0.00 | 0.00 | 52 | 1012.9 |
| 20260503175944 | 67 | 23 | 4.3 | 7.8 | 0.00 | 0.00 | 0.00 | 52 | 1012.9 |
| 20260503175438 | 67 | 4 | 4.3 | 8.7 | 0.00 | 0.00 | 0.00 | 53 | 1012.9 |
| 20260503174937 | 66 | 352 | 4.3 | 8.7 | 0.00 | 0.00 | 0.00 | 53 | 1012.9 |
| 20260503174436 | 66 | 350 | 4.3 | 6.1 | 0.00 | 0.00 | 0.00 | 54 | 1012.9 |
| 20260503174218 | 65 | 14 | 5.2 | 6.1 | 0.00 | 0.00 | 0.00 | 54 | 1012.9 |
| 20260503173431 | 65 | 359 | 5.2 | 8.7 | 0.00 | 0.00 | 0.00 | 56 | 1013.0 |
| 20260503173216 | 65 | 359 | 6.1 | 9.6 | 0.00 | 0.00 | 0.00 | 56 | 1013.0 |
| 20260503172433 | 65 | 347 | 5.2 | 9.6 | 0.00 | 0.00 | 0.00 | 58 | 1013.0 |
| 20260503171929 | 65 | 9 | 4.3 | 8.7 | 0.00 | 0.00 | 0.00 | 59 | 1013.1 |
| 20260503171431 | 64 | 354 | 5.2 | 8.7 | 0.00 | 0.00 | 0.00 | 59 | 1013.1 |
| 20260503170929 | 64 | 9 | 4.3 | 8.7 | 0.00 | 0.00 | 0.00 | 59 | 1013.1 |
| 20260503170429 | 64 | 15 | 4.3 | 8.7 | 0.00 | 0.00 | 0.00 | 60 | 1013.2 |